Regional Weather Roundup
Issued by NWS Boston, MA

Current Version | Previous Version | Text Only | Print | Product List | Glossary On
Versions: 1 2 3 4 5 6 7 8 9 10 11 12 13 14 15 16 17 18 19 20 21 22 23 24 25 26 27 28
000
ASUS41 KBOX 230910
RWRBOX

REGIONAL WEATHER ROUNDUP
NATIONAL WEATHER SERVICE BOSTON/NORTON MA
500 AM EDT WED MAY 23 2018

NOTE:  "FAIR" INDICATES FEW OR NO CLOUDS BELOW 12,000 FEET WITH NO
SIGNIFICANT WEATHER AND/OR OBSTRUCTIONS TO VISIBILITY.

MAZALL-231000-
EASTERN MASSACHUSETTS

CITY           SKY/WX    TMP DP  RH WIND       PRES   REMARKS
BOSTON         CLOUDY    55  52  89 SW9       29.87S
BEVERLY        MOCLDY    55  53  93 SW5       29.85S
LAWRENCE       MOCLDY    57  52  83 SW6       29.86S
BEDFORD        CLOUDY    55  53  93 S3        29.85S
BLUE HILL        N/A     52  52 100 SW9       29.86S
NORWOOD        CLOUDY    57  54  89 SW3       29.87S
MARSHFIELD     CLOUDY    55  54  94 SW5       29.88R
PLYMOUTH       CLOUDY    55  53  93 SW7       29.88S
TAUNTON        CLOUDY    55  53  93 SW5       29.88S
NEW BEDFORD    CLOUDY    55  55 100 SW6       29.89R
$$

MAZALL-231000-
CAPE COD AND THE ISLANDS

CITY           SKY/WX    TMP DP  RH WIND       PRES   REMARKS
FALMOUTH         N/A     54  54 100 SW6       29.90S
HYANNIS        CLOUDY    56  55  97 SW6       29.87S
CHATHAM        CLOUDY    55  54  96 S3        29.89S FOG
PROVINCETOWN   CLOUDY    53  51  93 SW8       29.89R
NANTUCKET      FOG       53  53 100 CALM      29.90R VSB 1/2
MARTHAS VNYRD  CLOUDY    54  53  97 W3        29.91R
$$

MAZALL-231000-
CENTRAL AND WESTERN MASSACHUSETTS

CITY           SKY/WX    TMP DP  RH WIND       PRES   REMARKS
WORCESTER      CLOUDY    53  52  96 W13       29.87R FOG
FITCHBURG      CLOUDY    56  56 100 VRB3      29.86S
ORANGE         CLOUDY    56  55  97 CALM      29.89R
SPRINGFIELD    CLOUDY    55  54  97 S6        29.88S
WESTFIELD      CLOUDY    55  55 100 CALM      29.88F
NORTH ADAMS    CLOUDY    59  55  87 NW3       29.88S
PITTSFIELD     CLOUDY    56  53  90 W6        29.89R
$$

RIZALL-231000-
RHODE ISLAND

CITY           SKY/WX    TMP DP  RH WIND       PRES   REMARKS
PROVIDENCE     LGT RAIN  56  54  93 SW5       29.90R
NEWPORT        LGT RAIN  55  54  96 VRB5      29.90R
BLOCK ISLAND   LGT RAIN  54  54 100 MISG      29.91
SMITHFIELD     CLOUDY    54  53  97 MISG      29.89R
WESTERLY       LGT RAIN  56  56 100 W3        29.90F FOG
$$

CTZALL-231000-
CONNECTICUT

CITY           SKY/WX    TMP DP  RH WIND       PRES   REMARKS
BRADLEY INTL   MOCLDY    55  55 100 SE5       29.89F FOG
HARTFORD       CLOUDY    56  55  97 CALM      29.88F
BRIDGEPORT     CLOUDY    57  55  93 SW9       29.90S FOG
DANBURY        CLOUDY    56  56 100 CALM      29.90F
GROTON         RAIN      54  54 100 SW5       29.89F FOG
NEW HAVEN      CLOUDY    57  56  96 CALM      29.88F FOG
CHESTER        CLOUDY    55  55 100 CALM      29.89F
MERIDEN        CLOUDY    55  55 100 CALM      29.89S
WILLIMANTIC    CLOUDY    56  54  93 CALM      29.90S
OXFORD         CLOUDY    54  54 100 CALM      29.90F FOG
$$

MEZ002-015-021-024-NHZ003-005-008-011-012-014-VTZ005-008-231000-
NORTHERN NEW ENGLAND

CITY           SKY/WX    TMP DP  RH WIND       PRES   REMARKS
PORTLAND ME    CLOUDY    53  51  93 SW3       29.84S
BANGOR ME      CLOUDY    53  50  89 S5        29.84F
CONCORD NH     CLOUDY    55  51  86 CALM      29.85S
MANCHESTER NH  MOCLDY    57  52  83 S5        29.84S
NASHUA NH      MOCLDY    53  53 100 CALM      29.86S
PORTSMOUTH NH  MOCLDY    53  52  94 CALM      29.83F
JAFFREY NH     CLOUDY    54  54 100 S6        29.87S
KEENE NH       CLOUDY    55  53  93 CALM      29.87S
BURLINGTON VT  CLOUDY    57  54  89 CALM      29.90R
MT. WASHINGTON DRZL/FOG  37  37 100 NW30        N/A  VSB 1/16WCI  25
$$

NYZ052-076-231000-
EASTERN NEW YORK

CITY           SKY/WX    TMP DP  RH WIND       PRES   REMARKS
ALBANY         CLOUDY    58  54  86 SW3       29.90R
NEW YORK CITY  LGT RAIN  60  58  92 CALM      29.90R FOG
$$

ANZALL-231000-
MARINE OBSERVATIONS

STATION/POSITION TIME  TEMP    WIND        PRES    VSBY  WAVE
                       AIR SEA DIR/SP/G                  HT/PER
                 (UTC) (F)     (DEG/KT/KT) (MB)    (MI)  (FT/S)
BOSTON BUOY      0850   54 54  200/  8/ 10 1011.2R         1/ 5
BUZZARDS BAY     0800   53     210/  2/  2 1012.9R
NANTUCKET SOUND  0850   53 55  200/  2/  2 1012.3R         0
MASS BAY-STELLWA NOT AVBL
ISLE OF SHOALS   0900   54     220/  9/ 10 1010.3R
S OF BLOCK IS    0843      53                N/A           2/ 8
$$

......................KEY.........................
  SKY/WX - SKY CONDITION/PRESENT WEATHER
  TMP    - TEMPERATURE IN FAHRENHEIT
  DWPT   - DEWPOINT IN FAHRENHEIT
  RH     - RELATIVE HUMIDITY IN PERCENT
  WIND   - DIRECTION AND SPEED IN MPH
  PRES   - MEAN SEA LEVEL PRESSURE IN INCHES OF HG
  WCI    - WIND CHILL INDEX
  VSB    - VISIBILITY IN MILES
  HX     - HEAT INDEX
  TC     - TEMPERATURE IN CELSIUS
  VRB    - VARIABLE WIND DIRECTION
  N/A    - NOT AVAILABLE




USA.gov is the U.S. government's official web portal to all federal, state and local government web resources and services.